Location: ?????????
(60.4634°N, 46.6910°E)
Time: 17:52:24
(UTC+00:00)

Daily predictions for brighter satellites

Satellite Brightness Start Highest point End
(mag) Time Altitude Azimuth Time Altitude Azimuth Time Altitude Azimuth
COSMOS 2455 3.0 19:45:40 10° SSW 19:51:34 59° SE 19:57:29 10° NE
NOSS 3-4 (A) 3.6 19:47:31 10° SW 19:53:29 63° SE 20:00:02 10° ENE
NOSS 3-4 (C) 3.6 19:47:37 10° SW 19:53:36 62° SE 20:00:08 10° ENE
NOSS 3-1 (A) 4.2 19:48:07 10° WNW 19:54:41 74° NNE 20:02:34 10° E
FALCON 9 DEB 4.5 19:53:24 10° SSW 19:55:56 20° SSE 19:58:30 10° ESE
Aureole 3 3.8 19:54:48 10° NNW 19:57:44 35° W 20:00:29 10° SSW
STARLINK-60 4.2 19:55:21 10° SW 19:57:51 21° S 20:00:23 10° SE
Cosmos 2263 Rocket 3.5 19:53:31 10° NW 19:58:54 42° NNE 20:04:13 10° E
Cosmos 1937 Rocket 3.9 19:54:27 10° NNW 19:59:41 64° NE 20:04:57 10° SE
Cosmos 1025 Rocket 3.8 19:56:05 10° SSW 20:00:18 52° WNW 20:04:35 10° N
Cosmos 2263 4.5 19:55:29 10° SW 20:01:06 74° NW 20:06:47 10° NE
Cosmos 2297 Rocket 2.4 19:57:27 10° NW 20:03:05 66° WSW 20:08:41 10° SSE
ALOS 2 2.7 20:00:16 10° SSE 20:04:40 79° WSW 20:09:06 10° NNW
CZ-4C R/B 4.0 20:02:27 10° SE 20:05:30 15° ESE 20:08:49 10° ENE
Cosmos 2219 3.5 20:01:10 10° NW 20:06:43 56° WSW 20:12:12 10° SSE
Cosmos 1953 4.1 20:03:27 10° NNW 20:06:45 25° W 20:10:02 10° SW
Cosmos 1898 Rocket 3.6 20:02:54 10° NNW 20:08:18 85° ENE 20:13:38 10° SE
Meteor 1-24 Rocket 4.2 20:03:19 10° SSE 20:08:30 47° E 20:13:54 10° NNE
Cosmos 1943 Rocket 3.3 20:03:04 10° WSW 20:08:32 50° NW 20:14:03 10° NE
Cosmos 1455 3.8 20:07:07 10° N 20:10:25 28° ENE 20:13:42 10° ESE
Cosmos 1992 Rocket 4.5 20:06:54 10° SW 20:12:06 65° NW 20:17:20 10° NNE
RESURS DK-1 2.6 20:08:14 10° SSW 20:12:16 52° SE 20:16:19 10° NE
Cosmos 2228 3.6 20:08:27 10° NNW 20:12:34 48° W 20:16:38 10° S
ERBS 3.6 20:10:27 10° W 20:13:09 23° SSW 20:15:51 10° SSE
Lacrosse 4 Rocket 1.5 20:08:58 10° NW 20:13:20 67° SW 20:17:32 10° SE
Cosmos 1271 Rocket 4.4 20:11:04 10° SW 20:14:42 34° WNW 20:18:23 10° N
NOSS 2-2 (C) 4.1 20:10:54 10° W 20:14:53 67° NNW 20:20:04 10° ENE
Cosmos 1626 2.8 20:12:06 10° SSE 20:15:38 43° E 20:19:11 10° NNE
Cosmos 2082 3.7 20:11:46 10° NW 20:17:29 84° SW 20:23:07 10° SE
Cosmos 990 Rocket 4.1 20:13:08 10° NW 20:18:27 83° WSW 20:23:42 10° SSE
Cosmos 921 Rocket 3.5 20:16:30 10° S 20:20:41 48° ESE 20:24:59 10° NE
SL-4 R/B 3.2 20:17:37 10° WSW 20:21:46 29° S 20:25:55 10° ESE
ATLAS 2AS CENTAUR R/B 3.1 20:13:57 10° SW 20:21:59 81° SSE 20:29:46 10° ENE
Meteor 2-1 Rocket 4.5 20:18:50 10° NNW 20:24:22 68° ENE 20:29:57 10° SSE
EO 1 Del DPAF 3.5 20:21:21 10° NNE 20:25:08 70° WNW 20:28:54 10° SSW
Cosmos 1707 4.4 20:23:01 10° SW 20:26:30 31° WNW 20:30:00 10° N
Cosmos 1656 Rocket 4.1 20:22:01 10° SW 20:27:36 68° NW 20:33:07 10° NE
STARLINK-29 4.2 20:27:58 10° SW 20:30:31 22° S 20:33:04 10° SE
Cosmos 1726 Rocket 4.5 20:28:23 10° NNW 20:32:27 40° W 20:36:30 10° SSW
SL-4 R/B 2.3 20:34:17 10° SSW 20:36:03 21° W 20:37:50 10° NW
Cosmos 1697 Rocket 4.2 20:32:03 10° SSE 20:36:23 23° ESE 20:40:44 10° NE
Okean 1-7 Rocket 3.7 20:32:52 10° S 20:37:23 74° E 20:41:58 10° NNE
Helios 1A 3.1 20:34:36 10° S 20:38:46 66° WSW 20:42:57 10° NNW
Cosmos 2227 Rocket 2.7 20:35:17 10° NW 20:40:43 47° WSW 20:46:07 10° S
SJ 16-02 1.7 20:36:33 10° NW 20:40:54 55° WSW 20:45:15 10° S
ATLAS CENTAUR R/B 1.4 20:36:51 10° WSW 20:41:04 85° NNW 20:45:00 10° ENE
Cosmos 1892 Rocket 3.6 20:37:51 10° SSW 20:42:14 89° WNW 20:46:37 10° NNE
Cosmos 1461 4.4 20:39:26 10° WNW 20:43:46 47° N 20:48:16 10° ENE
Cosmos 2369 Rocket 3.5 20:38:40 10° WSW 20:44:04 44° NNW 20:49:29 10° NE
STARLINK-1320 4.3 20:44:06 10° SW 20:46:24 19° SSE 20:48:43 10° ESE
STARLINK-1322 4.3 20:44:26 10° SW 20:46:45 19° S 20:49:04 10° ESE
STARLINK-1324 4.3 20:44:44 10° SW 20:47:03 19° S 20:49:21 10° ESE
STARLINK-1294 4.3 20:45:04 10° SW 20:47:22 19° S 20:49:42 10° ESE
STARLINK-1261 4.3 20:45:26 10° SW 20:47:45 19° S 20:50:04 10° ESE
STARLINK-1325 4.3 20:45:47 10° SW 20:48:06 19° S 20:50:24 10° ESE
STARLINK-1333 4.3 20:46:09 10° SW 20:48:28 19° S 20:50:47 10° ESE
STARLINK-1334 4.3 20:46:25 10° SW 20:48:44 19° S 20:51:04 10° ESE
STARLINK-1326 4.3 20:46:45 10° SW 20:49:04 19° S 20:51:23 10° ESE
Nadezhda 1 Rocket 4.1 20:43:08 10° NNW 20:49:23 86° WSW 20:55:42 10° S
STARLINK-1323 4.3 20:47:07 10° SW 20:49:27 19° S 20:51:46 10° ESE
STARLINK-1349 4.3 20:47:24 10° SW 20:49:43 19° S 20:52:02 10° ESE
STARLINK-1336 4.3 20:47:45 10° SW 20:50:04 19° S 20:52:24 10° ESE
STARLINK-1331 4.3 20:48:07 10° SW 20:50:26 19° S 20:52:46 10° ESE
SL-16 R/B 3.7 20:44:48 10° ESE 20:50:32 42° NE 20:56:19 10° NNW
Cosmos 2298 Rocket 4.5 20:45:22 10° NNW 20:50:41 65° NE 20:55:58 10° SE
STARLINK-1344 4.3 20:48:25 10° SW 20:50:44 19° S 20:53:04 10° ESE
STARLINK-1343 4.3 20:48:47 10° SW 20:51:07 19° S 20:53:26 10° ESE
STARLINK-1346 4.3 20:49:03 10° SW 20:51:25 20° S 20:53:47 10° ESE
STARLINK-1328 4.3 20:49:29 10° SW 20:51:49 19° S 20:54:10 10° ESE
Cosmos 1400 Rocket 4.3 20:48:03 10° N 20:51:54 35° ENE 20:55:44 10° SE
STARLINK-1354 4.3 20:49:47 10° SW 20:52:07 19° S 20:54:27 10° ESE
STARLINK-1347 4.3 20:50:06 10° SW 20:52:25 19° S 20:54:46 10° ESE
STARLINK-1357 4.3 20:50:30 10° SW 20:52:50 19° S 20:55:10 10° ESE
STARLINK-1335 4.3 20:50:47 10° SW 20:53:07 19° S 20:55:27 10° ESE
Cosmos 1844 Rocket 4.5 20:48:03 10° NW 20:53:15 36° NNE 20:58:24 10° E
STARLINK-1327 4.3 20:51:08 10° SW 20:53:28 19° S 20:55:48 10° ESE
STARLINK-1340 4.3 20:51:26 10° SW 20:53:45 19° S 20:56:06 10° ESE
STARLINK-1356 4.3 20:51:48 10° SW 20:54:08 19° S 20:56:28 10° ESE
STARLINK-1345 4.3 20:52:06 10° SW 20:54:27 19° S 20:56:48 10° ESE
Cosmos 2285 Rocket 4.1 20:48:03 10° NW 20:54:28 82° WSW 21:00:48 10° SSE
Cosmos 1437 2.6 20:51:37 10° S 20:54:38 73° ESE 20:57:40 10° NNE
STARLINK-1355 4.3 20:52:27 10° SW 20:54:48 20° S 20:57:09 10° ESE
STARLINK-1321 4.3 20:52:47 10° SW 20:55:08 20° S 20:57:30 10° ESE
STARLINK-1358 4.3 20:53:11 10° SW 20:55:31 20° S 20:57:52 10° ESE
Landsat 4 4.1 20:51:56 10° NNE 20:55:35 51° ESE 20:59:14 10° S
STARLINK-1332 4.3 20:53:27 10° SW 20:55:49 20° S 20:58:09 10° ESE
STARLINK-1348 4.3 20:53:47 10° SW 20:56:08 20° S 20:58:29 10° ESE
Cosmos 2084 Rocket 4.0 20:52:03 10° WNW 20:56:14 42° SW 21:00:28 10° SSE
STARLINK-1330 4.3 20:54:07 10° SW 20:56:28 20° S 20:58:50 10° ESE
STARLINK-1363 4.3 20:54:26 10° SW 20:56:48 20° S 20:59:09 10° ESE
STARLINK-1337 4.3 20:54:49 10° SW 20:57:10 20° S 20:59:32 10° ESE
Cosmos 1356 Rocket 3.9 20:53:08 10° NNW 20:57:14 50° W 21:01:22 10° S
STARLINK-1342 4.3 20:55:08 10° SW 20:57:30 20° S 20:59:51 10° ESE
STARLINK-1364 4.3 20:55:28 10° SW 20:57:50 20° S 21:00:11 10° ESE
STARLINK-1376 4.3 20:55:48 10° SW 20:58:10 20° S 21:00:31 10° ESE
STARLINK-1360 4.3 20:56:08 10° SW 20:58:30 20° S 21:00:52 10° ESE
STARLINK-1361 4.3 20:56:29 10° SW 20:58:51 20° S 21:01:12 10° ESE
STARLINK-1367 4.3 20:56:44 10° SW 20:59:07 20° S 21:01:31 10° ESE
STARLINK-1366 4.3 20:57:07 10° SW 20:59:29 20° S 21:01:51 10° ESE
GEOS 3 Rocket 3.9 20:55:00 10° ESE 21:00:17 81° NNE 21:05:40 10° WNW
Thor Agena Rocket 4.4 20:56:42 10° NNE 21:01:49 50° WNW 21:06:52 10° SW
USA 215 3.8 20:57:41 10° SSE 21:03:43 38° SW 21:09:45 10° WNW
Cosmos 2084 3.6 21:00:11 10° SW 21:04:38 68° SSE 21:09:05 10° ENE
SL-14 R/B 3.4 21:01:23 10° SSW 21:05:13 73° WNW 21:09:07 10° NNE
CZ-2D R/B 4.3 21:02:29 10° NE 21:05:34 16° E 21:08:39 10° ESE
STARLINK-52 4.2 21:03:08 10° SW 21:05:41 22° S 21:08:13 10° SE
Meteor 2-10 Rocket 3.5 21:02:03 10° NNW 21:07:18 85° WSW 21:12:22 10° SSE
STARLINK-1341 4.5 21:06:22 10° SW 21:09:39 26° S 21:12:57 10° ESE
Cosmos 1300 4.0 21:07:00 10° NNW 21:10:22 29° W 21:13:42 10° SSW
Meteor 2-5 Rocket 4.1 21:04:51 10° SSW 21:10:26 65° WNW 21:16:10 10° NNE
STARLINK-1374 4.5 21:11:07 10° SW 21:14:29 27° S 21:17:52 10° ESE
Cosmos-2242 3.2 21:11:18 10° NNW 21:15:34 72° ENE 21:19:49 10° SSE
Cosmos 2221 4.4 21:14:13 10° N 21:18:02 28° ENE 21:21:51 10° ESE
STARLINK-1339 4.5 21:15:22 10° SW 21:18:45 27° S 21:22:10 10° ESE
SeaSat 1 2.5 21:16:25 10° NE 21:21:24 87° SE 21:26:22 10° SW
STARLINK-1377 4.5 21:19:38 10° SW 21:23:03 27° S 21:26:27 10° ESE
NOSS 2-2 (D) 4.5 21:19:24 10° WNW 21:23:38 62° N 21:29:16 10° E
SL-08 ROCKET BODY 4.4 21:18:07 10° S 21:23:57 83° E 21:29:53 10° NNE
STARLINK-1444 4.2 21:24:36 10° SSW 21:25:09 11° SSW 21:25:43 10° S
Cosmos 1626 Rocket 3.6 21:20:48 10° SSW 21:25:10 90° W 21:29:36 10° NNE
STARLINK-1452 4.2 21:25:18 10° SSW 21:25:47 10° SSW 21:26:16 10° S
STARLINK-1392 4.2 21:26:28 10° SSW 21:26:38 10° SSW 21:26:48 10° S
STARLINK-1399 4.2 21:26:25 10° SSW 21:26:40 10° SSW 21:26:55 10° S
STARLINK-1393 4.2 21:26:29 10° SSW 21:26:42 10° SSW 21:26:54 10° S
STARLINK-1394 4.2 21:26:30 10° SSW 21:26:43 10° SSW 21:26:56 10° S
STARLINK-1397 4.2 21:26:31 10° SSW 21:26:46 10° SSW 21:27:01 10° S
STARLINK-1396 4.2 21:26:33 10° SSW 21:26:47 10° SSW 21:27:00 10° S
STARLINK-1414 4.2 21:26:38 10° SSW 21:26:47 10° SSW 21:26:56 10° S
STARLINK-1408 4.2 21:26:42 10° SSW 21:26:50 10° SSW 21:26:57 10° S
STARLINK-1404 4.2 21:26:37 10° SSW 21:26:51 10° SSW 21:27:06 10° S
STARLINK-1416 4.2 21:26:41 10° SSW 21:26:51 10° SSW 21:27:01 10° S
STARLINK-1415 4.2 21:26:35 10° SSW 21:26:53 10° SSW 21:27:11 10° S
STARLINK-1450 4.2 21:26:36 10° SSW 21:26:54 10° SSW 21:27:12 10° S
STARLINK-1406 4.2 21:26:54 10° SSW 21:26:55 10° SSW 21:26:56 10° SSW
STARLINK-1401 4.2 21:26:38 10° SSW 21:26:56 10° SSW 21:27:13 10° S
STARLINK-1417 4.2 21:26:41 10° SSW 21:26:59 10° SSW 21:27:17 10° S
STARLINK-1402 4.2 21:26:43 10° SSW 21:27:00 10° SSW 21:27:18 10° S
STARLINK-1413 4.2 21:26:43 10° SSW 21:27:00 10° SSW 21:27:18 10° S
STARLINK-1419 4.2 21:26:46 10° SSW 21:27:00 10° SSW 21:27:14 10° S
STARLINK-1422 4.2 21:26:48 10° SSW 21:27:05 10° SSW 21:27:23 10° S
STARLINK-1453 4.2 21:26:46 10° SSW 21:27:06 10° SSW 21:27:27 10° S
STARLINK-1398 4.2 21:26:43 10° SSW 21:27:08 10° SSW 21:27:32 10° S
STARLINK-1420 4.2 21:26:51 10° SSW 21:27:09 10° SSW 21:27:28 10° S
STARLINK-1440 4.2 21:26:49 10° SSW 21:27:09 10° SSW 21:27:30 10° S
STARLINK-1436 (VISORSAT) 4.2 21:26:47 10° SSW 21:27:10 10° SSW 21:27:34 10° S
STARLINK-1460 4.2 21:26:53 10° SSW 21:27:12 10° SSW 21:27:31 10° S
BREEZE-M DEB (TANK) 3.9 21:24:23 10° WSW 21:27:14 15° SW 21:29:05 10° S
STARLINK-1410 4.2 21:26:59 10° SSW 21:27:16 10° SSW 21:27:34 10° S
STARLINK-1423 4.2 21:27:03 10° SSW 21:27:16 10° SSW 21:27:29 10° S
STARLINK-1421 4.2 21:27:03 10° SSW 21:27:17 10° SSW 21:27:30 10° S
STARLINK-1400 4.2 21:26:59 10° SSW 21:27:17 10° SSW 21:27:35 10° S
STARLINK-1454 4.2 21:27:00 10° SSW 21:27:17 10° SSW 21:27:36 10° S
Cosmos 1315 Rocket 4.5 21:23:45 10° N 21:27:18 31° ENE 21:30:52 10° SE
STARLINK-1353 4.5 21:23:54 10° SW 21:27:19 27° S 21:30:45 10° ESE
STARLINK-1458 4.2 21:27:04 10° SSW 21:27:19 10° SSW 21:27:35 10° S
STARLINK-1445 4.2 21:27:03 10° SSW 21:27:22 10° SSW 21:27:42 10° S
STARLINK-1446 4.2 21:27:05 10° SSW 21:27:24 10° SSW 21:27:44 10° S
STARLINK-1407 4.2 21:27:05 10° SSW 21:27:24 10° SSW 21:27:44 10° S
STARLINK-1370 4.2 21:27:08 10° SSW 21:27:27 10° SSW 21:27:46 10° S
STARLINK-1456 4.2 21:27:12 10° SSW 21:27:27 10° SSW 21:27:43 10° S
STARLINK-1457 4.2 21:27:12 10° SSW 21:27:27 10° SSW 21:27:43 10° S
STARLINK-1451 4.2 21:27:13 10° SSW 21:27:27 10° SSW 21:27:43 10° S
STARLINK-1409 4.2 21:27:13 10° SSW 21:27:28 10° SSW 21:27:44 10° S
STARLINK-1437 4.2 21:27:13 10° SSW 21:27:29 10° SSW 21:27:46 10° S
STARLINK-1447 4.2 21:27:10 10° SSW 21:27:29 10° SSW 21:27:48 10° S
STARLINK-1455 4.2 21:27:10 10° SSW 21:27:29 10° SSW 21:27:48 10° S
STARLINK-1441 4.2 21:27:13 10° SSW 21:27:31 10° SSW 21:27:50 10° S
STARLINK-1443 4.2 21:27:12 10° SSW 21:27:33 10° SSW 21:27:55 10° S
STARLINK-1351 4.2 21:27:17 10° SSW 21:27:36 10° SSW 21:27:55 10° S
STARLINK-1418 4.2 21:27:17 10° SSW 21:27:36 10° SSW 21:27:55 10° S
STARLINK-1442 4.2 21:27:18 10° SSW 21:27:36 10° SSW 21:27:56 10° S
STARLINK-1403 4.2 21:27:17 10° SSW 21:27:36 10° SSW 21:27:57 10° S
STARLINK-1434 4.2 21:27:16 10° SSW 21:27:36 10° SSW 21:27:58 10° S
STARLINK-1448 4.2 21:27:20 10° SSW 21:27:38 10° SSW 21:27:57 10° S
STARLINK-1433 4.2 21:27:21 10° SSW 21:27:40 10° SSW 21:27:58 10° S
STARLINK-1449 4.2 21:27:21 10° SSW 21:27:41 10° SSW 21:28:00 10° S
STARLINK-1438 4.2 21:27:30 10° SSW 21:27:44 10° SSW 21:27:57 10° S
STARLINK-1411 4.2 21:27:34 10° SSW 21:27:51 10° SSW 21:28:07 10° S
STARLINK-1412 4.2 21:27:32 10° SSW 21:27:51 10° SSW 21:28:09 10° S
Alouette 2 Rocket 3.9 21:22:20 10° NNW 21:28:07 72° WSW 21:32:08 10° S
OPS 8737 4.4 21:26:16 10° WNW 21:29:10 53° SW 21:32:39 10° SE
BREEZE-M DEB (TANK) 3.5 21:31:05 10° SSW 21:31:37 10° S 21:32:07 10° SSE
STARLINK-1375 4.4 21:28:12 10° SW 21:31:38 28° S 21:35:04 10° ESE
FALCON 9 DEB 4.3 21:29:27 10° WSW 21:32:16 23° S 21:35:05 10° SE
Helios 1B rocket 2.7 21:29:07 10° NNE 21:33:15 62° ESE 21:37:20 10° S
CZ-4C R/B 4.3 21:29:28 10° SE 21:33:46 54° ENE 21:38:08 10° NNW
Cosmos 1980 Rocket 3.4 21:29:09 10° S 21:34:02 31° ESE 21:38:57 10° NE
STARLINK-1350 4.4 21:32:28 10° SW 21:35:55 28° S 21:39:21 10° ESE
USA 229 DEB 3.9 21:29:55 10° WNW 21:36:56 66° SW 21:44:20 10° SE
USA 229 3.9 21:30:02 10° WNW 21:37:02 66° SW 21:44:26 10° SE
COSMOS 2455 3.5 21:31:38 10° WSW 21:37:37 62° NNW 21:43:38 10° NE
NOSS 3-1 (C) 4.0 21:30:52 10° WNW 21:37:46 63° SW 21:45:53 10° SE
Cosmos 1745 Rocket 4.1 21:32:42 10° SSW 21:38:51 82° WNW 21:45:04 10° NNE
Cosmos 468 Rocket 4.1 21:34:39 10° SSW 21:39:44 68° ESE 21:44:53 10° NE
NOSS 2-2 (E) 4.5 21:35:31 10° WNW 21:39:57 66° N 21:45:57 10° E
STARLINK-1352 4.4 21:36:49 10° SW 21:40:17 28° S 21:43:44 10° ESE
Cosmos 1937 Rocket 4.4 21:36:41 10° NW 21:41:27 36° WSW 21:46:14 10° S
Cosmos 2263 Rocket 2.2 21:37:39 10° NW 21:43:17 77° SW 21:48:52 10° SSE
Cosmos 2369 4.2 21:38:48 10° SSW 21:44:14 51° ESE 21:49:44 10° NE
ADEOS II 4.5 21:41:28 10° NE 21:44:17 14° E 21:47:07 10° ESE
NOSS 3-4 (A) 3.9 21:38:11 10° W 21:44:26 75° NNW 21:51:20 10° ENE
NOSS 3-4 (C) 3.9 21:38:17 10° W 21:44:31 75° NNW 21:51:26 10° ENE
STARLINK-1368 4.4 21:41:11 10° WSW 21:44:38 28° S 21:48:06 10° ESE
Cosmos 1812 Rocket 4.4 21:41:07 10° NNW 21:45:17 38° W 21:49:23 10° SSW
NOSS 3-1 (A) 4.0 21:38:59 10° WNW 21:45:54 72° SW 21:54:06 10° SE
Cosmos 2297 Rocket 3.9 21:42:25 10° WNW 21:46:12 19° W 21:49:58 10° SW
Cosmos 1455 2.7 21:42:37 10° NNW 21:46:14 46° W 21:49:49 10° S
Meteor 1-29 3.3 21:43:49 10° NNE 21:47:09 54° ESE 21:50:26 10° S
STARLINK-1369 4.4 21:45:04 10° WSW 21:48:29 28° S 21:51:55 10° ESE
RESURS DK-1 3.6 21:46:27 10° WSW 21:50:26 43° NNW 21:54:26 10° NE
